カタログに戻る

S5 DEB

運用中GEO
NORAD 44066·DEBRIS·🇺🇸 United States

打ち上げ Feb 22, 2019 から Cape Canaveral Space Force Station

Loading…

TLE

最新Source: Space-Track

元期: Sep 12, 2026, 03:41 UTC

1 44066U 19009E   26255.15353262 -.00000061  00000-0  00000-0 0  9994
2 44066   6.8023  69.8778 0009259 155.8662 204.3979  0.98986365 27225

AllMySatでS5 DEBをリアルタイム追跡

Download on the App Store